Location: Peterborough
(44.3091°N, 78.3197°W)
Time: 19:53:11
(UTC-04:00)

Vanguard 2 Rocket - Pass Details

Date: 24 March 2023
Orbit: 554 x 3314 km, 32.9° (Epoch: 06 June)

Event Time Altitude Azimuth Distance (km) Brightness Sun altitude
Exits shadow 03:22:07 13° 164° (SSE) 5,954 10.7 -36.8°
Drops below altitude 10° 03:24:07 10° 160° (SSE) 6,262 10.9 -36.6°
Sets 03:30:00 0° 151° (SSE) 7,217 11.3 -35.9°
